Regional Weather Roundup
Issued by NWS Goodland, KS

Home | Current Version | Previous Version | Graphics & Text | Print | Product List | Glossary On
Versions: 1 2 3 4 5 6 7 8 9 10 11 12 13 14 15 16 17 18 19 20 21 22 23 24 25 26 27 28 29 30 31 32 33 34 35 36 37 38 39 40 41 42 43 44 45 46 47 48 49 50
026
ASUS43 KGLD 260508
RWRGLD

GOODLAND FORECAST AREA HOURLY WEATHER ROUNDUP
NATIONAL WEATHER SERVICE GOODLAND KS
1100 PM MDT TUE APR 25 2017

...OFFICIAL OBSERVATIONS...

CITY           SKY/WX    TMP DP  RH WIND       PRES   REMARKS
GOODLAND KS    CLOUDY    39  36  89 N17       29.74F
HILL CITY KS   CLOUDY    41  36  82 N20G28    29.73R
IMPERIAL NEB   CLOUDY    36  30  79 N18G24    29.81S
MCCOOK NEB     CLOUDY    39  33  79 N17G24    29.75F
AKRON CO       CLOUDY    35  32  88 N13       29.81S
BURLINGTON CO  NOT AVBL
LIMON CO       CLOUDY    37  36  96 N16       29.79R
$$

...UNOFFICIAL OBSERVATIONS...

CITY           SKY/WX    TMP DP  RH WIND       PRES   REMARKS
LENORA KS        N/A     38  32  79 MISG        N/A
NORTON KS      CLOUDY    37  28  70 N17G28    29.72S
SHARON SPRINGS   N/A     43  38  83 NE13G21     N/A
TRENTON NEB      N/A     36  32  85 N12         N/A
KIT CARSON CO    N/A     41  37  87 MISG        N/A
YUMA CO        CLOUDY    34  32  93 N12       29.81R
$$




USA.gov is the U.S. government's official web portal to all federal, state and local government web resources and services.